Location: Unspecified
(0.0000°N, 0.0000°E)
Time: 19:50:58
(UTC+02:00)

ADEOS II - Visible Passes

Search period start: 29 July 2016 00:00
Search period end: 08 August 2016 00:00
Orbit: 800 x 802 km, 98.3° (Epoch: 27 July)

Date Brightness Start Highest point End Pass type
(mag) Time Alt. Az. Time Alt. Az. Time Alt. Az.
29 Jul 2.1 06:21:17 10° N 06:26:21 54° WNW 06:26:21 54° WNW visible
30 Jul 2.3 05:54:54 10° NNE 05:59:40 68° ENE 05:59:40 68° ENE visible
31 Jul 3.6 05:29:08 10° NE 05:32:58 32° E 05:32:58 32° E visible
31 Jul 3.7 07:10:32 10° NW 07:13:18 14° WNW 07:13:55 14° W visible
01 Aug 4.6 05:04:18 10° ENE 05:06:16 15° E 05:06:16 15° E visible
01 Aug 2.9 06:42:32 10° NNW 06:47:04 30° WNW 06:47:14 30° W visible
02 Aug 2.1 06:15:37 10° N 06:20:32 62° WNW 06:20:32 62° WNW visible
03 Aug 2.6 05:49:21 10° NNE 05:53:50 57° ENE 05:53:50 57° ENE visible
04 Aug 3.9 05:23:43 10° NE 05:27:08 28° E 05:27:08 28° E visible
04 Aug 3.5 07:04:26 10° NW 07:07:42 17° WNW 07:08:06 17° W visible
05 Aug 4.8 04:59:12 10° ENE 05:00:26 13° E 05:00:26 13° E visible
05 Aug 2.7 06:36:45 10° NNW 06:41:24 34° WNW 06:41:24 34° WNW visible
06 Aug 2.1 06:09:57 10° N 06:14:42 67° NW 06:14:42 67° NW visible
07 Aug 2.9 05:43:48 10° NNE 05:48:00 48° ENE 05:48:00 48° ENE visible
